www.pogodaiklimat.ru

Погода и климат >> Архив погоды >> Россия >> Магаданская область >> Сеймчан


АРХИВ ПОГОДЫ в Сеймчане

Время (UTC), дата Ветер
(напр.,м/с)
 
Видим.   Явления Облачность Т
(С)
Тd
(С)
f
(%)
Тe
(С)
Тes
(С)
Комфортность P
(гПа)
Po
(гПа)
Тmin
(С)
Tmax
(С)
R
(мм)
R24
(мм)
S
(см)
12 11.08 СЗ 1 50 км 6/3 1000 м
[Sc Ac trans]
+10.5 +10.0 97 +10 +10 1009.7 984.6
15 11.08 С 1 50 км 5/3 1000 м
[Sc Ac trans]
+9.8 +9.7 99 +9 +9 1008.8 983.7
18 11.08 С 1 50 км 9/3 1000 м
[Sc Ac trans Ci fib]
+7.9 +7.9 100 +7 +7 1008.8 983.5
21 11.08 штиль 0 20 км 9/4 1000 м
[Cb cap Ac trans]
+15.8 +12.1 79 +16 +17 1007.7 983.2 +7.8
00 12.08 СВ 4 20 км дым 9/3 1000 м
[Sc diur, vesp Ac trans Ci fib]
+21.0 +12.0 56 +23 +26 комфорт 1006.4 982.3
03 12.08 СВ 4 20 км дым 8/5 1000 м
[Cu med, cong Ci fib]
+22.9 +10.2 45 +25 +28 комфорт 1005.1 981.2
06 12.08 С 3 20 км дым 9/5 1000 м
[Cu med, cong Ci fib]
+22.9 +11.0 47 +25 +26 комфорт 1004.6 980.7
09 12.08 С 2
{10}
20 км {ливн. осадки} 9/3 1000 м
[Sc diur, vesp Ci fib]
+17.3 +13.8 80 +18 +18 1005.8 981.4 +23.4 2
12 12.08 С 1 50 км {ливн. осадки} 9/3 1000 м
[Sc Ci fib]
+14.1 +11.7 85 +14 +14 1007.0 982.3
15 12.08 С 1 50 км 9/3 1000 м
[Sc Ac trans Ci fib]
+10.2 +9.9 98 +10 +10 1007.6 982.5
18 12.08 С 2 50 км 9/3 1000 м
[Sc Ac trans Ci fib]
+13.6 +11.5 87 +13 +13 1007.7 983.0
21 12.08 С 3 50 км 6/1 1000 м
[Sc Ci fib]
+16.8 +11.7 72 +17 +18 1007.6 983.1 +9.9
00 13.08 В 2 50 км 8/3 1000 м
[Sc Ci fib]
+19.3 +11.1 59 +21 +26 комфорт 1007.2 982.9
03 13.08 СВ 3 50 км 8/4 1000 м
[Cu med, cong Ci fib]
+20.9 +10.3 51 +23 +27 комфорт 1006.4 982.3
06 13.08 С 5
{10}
50 км 8/3 1000 м
[Cu hum Ci fib]
+22.0 +7.4 39 +23 +24 комфорт 1005.7 981.7
09 13.08 С 3 50 км 6/1 1000 м
[Sc diur, vesp Ci fib]
+18.7 +4.7 40 +19 +19 1006.7 982.3 +22.9
12 13.08 С 3 50 км 6/0
[Ci fib]
+11.7 -0.4 43 +10 +10 1009.5 984.5
15 13.08 СЗ 2 50 км 6/0
[Ci fib]
+8.8 +4.0 72 +7 +7 1011.7 986.4
18 13.08 С 2 50 км 3/0
[Ac lent Ci fib]
+5.1 +4.4 95 +2 +2 1013.6 987.9
21 13.08 СЗ 1 50 км 6/1 1000 м
[Sc Ci fib]
+12.3 +5.5 63 +12 +15 1014.5 989.4 +4.1
00 14.08 СЗ 3 20 км 8/8 1050 м
[Cb cap]
+13.4 +6.6 63 +12 +14 1015.0 990.0
03 14.08 СВ 3 50 км 8/8 1000 м
[Cu Sc]
+16.3 +6.8 53 +16 +18 1014.9 990.2
06 14.08 СВ 4 50 км 8/6 1000 м
[Cu Sc Ac trans]
+15.8 +7.0 56 +15 +16 1015.7 990.9
09 14.08 СВ 3 50 км 3/0
[Ci fib]
+12.8 +6.4 65 +12 +12 1016.9 991.8 +16.7
12 14.08 штиль 0 50 км 8/0
[Ci fib]
+8.2 +5.9 85 +7 +7 1018.6 993.1
15 14.08 СВ 1 50 км 8/0
[Ci fib]
+2.1 +2.1 100 0 0 1019.9 993.7
18 14.08 штиль 0 50 км 9/3 1000 м
[Sc Ac trans Ci fib]
+1.7 +1.7 100 0 0 1020.9 994.7
21 14.08 штиль 0 20 км 9/8 1000 м
[Sc Ac trans]
+7.8 +6.5 91 +7 +7 1021.1 995.5 +1.3
00 15.08 В 1 20 км 9/9 930 м
[Sc]
+13.6 +5.9 60 +14 +15 1020.5 995.4
03 15.08 СЗ 1 50 км 9/3 1000 м
[Sc Ci fib]
+16.7 +6.8 52 +18 +24 1019.7 994.9
06 15.08 В 1 50 км 3/0
[Ci fib]
+18.1 +6.5 47 +19 +23 1019.2 994.5
09 15.08 СВ 1 50 км 3/0
[Ci fib]
+15.2 +9.7 70 +16 +16 1019.7 994.8 +18.3
12 15.08 штиль 0 50 км 3/0
[Ci fib]
+5.0 +5.0 100 +4 +4 1021.6 995.7
15 15.08 штиль 0 50 км 3/0
[Ci fib]
+1.3 +1.3 100 -0 -0 1022.9 996.6
18 15.08 СЗ 1 4000 м дымка 4/0
[Ci fib]
-0.3 -0.3 100 -3 -3 1024.4 997.9
21 15.08 В 1 500 м туман 4/0
[Ci fib]
+5.6 +5.6 100 +4 +7 1024.5 998.6 -0.5
00 16.08 В 1 50 км {туман} 3/0
[Ci fib]
+13.7 +8.6 71 +14 +23 1023.5 998.3
03 16.08 В 1 20 км дым ясно +19.9 +8.6 48 +22 +32 комфорт 1021.6 997.0
06 16.08 штиль 0 20 км дым ясно +21.5 +7.0 39 +22 +27 комфорт 1020.3 995.9
09 16.08 штиль 0 20 км дым ясно +15.8 +12.2 79 +16 +16 1020.9 996.0 +22.1
12 16.08 СЗ 1 50 км ясно +6.4 +6.4 100 +5 +5 1022.3 996.5
15 16.08 З 1 50 км ясно +2.2 +2.2 100 0 0 1022.8 996.6
18 16.08 СЗ 1 50 км ясно -0.1 -0.1 100 -2 -2 1023.8 997.4
21 16.08 СВ 1 20 км дым ясно +8.6 +7.2 91 +8 +11 1023.5 997.9 -0.1
00 17.08 В 1 50 км ясно +17.6 +8.2 54 +19 +28 1022.2 997.4
03 17.08 В 2 50 км ясно +22.2 +4.8 32 +22 +31 комфорт 1020.8 996.4
06 17.08 С 3 50 км ясно +22.7 -0.3 22 +22 +25 комфорт 1020.2 995.8
09 17.08 С 2 50 км ясно +17.6 +1.2 33 +18 +18 1021.1 996.3 +23.3
12 17.08 С 1 50 км 3/0
[Ci fib]
+5.6 +4.4 92 +4 +4 1023.2 997.3
15 17.08 СЗ 1 50 км 3/0
[Ci fib]
+1.6 +1.6 100 -1 -1 1023.9 997.6
18 17.08 штиль 0 50 км ясно -1.1 -1.1 100 -3 -3 1025.1 998.5
21 17.08 штиль 0 50 км ясно +8.1 +3.9 75 +7 +11 1024.8 999.1 -1.1
00 18.08 ЮВ 1 50 км ясно +17.0 +5.1 45 +18 +27 1023.3 998.4
03 18.08 СВ 1 50 км ясно +22.1 +3.1 29 +22 +32 комфорт 1021.4 997.0
06 18.08 СЗ 2 50 км ясно +23.3 +2.8 26 +23 +26 комфорт 1020.3 995.9

 

Местоположение метеостанции Сеймчан (Магаданская область, Россия): широта 62.91 долгота 152.40 высота над уровнем моря 210 м.

В архиве по умолчанию представлена погода в Сеймчане за последнюю неделю. Архивные данные за месяц целиком и за предыдущие месяцы, начиная с января 2011 года, Вы можете получить, выбрав интересующий диапазон дат из раскрывающегося списка и нажав кнопку "Ввод!".


*Определитесь, кто Вы:
робот инопланетянин человек

Внимание! Время в таблицах - всемирное. Для получения местного времени необходимо прибавить поправку, которая равна 11 ч.

Смотрите также архив погоды в соседних городах и на ближайших метеорологических станциях:

Погода в Среднекане (Магаданская область, Россия) (51 км)
Погода в Совхозе Эльген (Магаданская область, Россия) (92 км)
Погода в Усть-Бохапче (Магаданская область, Россия) (129 км)
Погода в Балыгычане (Магаданская область, Россия) (140 км)
Погода в Ягодной (Магаданская область, Россия) (150 км)
Погода на Озере Джека Лондона (Магаданская область, Россия) (175 км)
Погода в Омсукчане (Магаданская область, Россия) (179 км)
Погода в Талой (Магаданская область, Россия) (198 км)
Погода в Коркодоне (Магаданская область, Россия) (217 км)
Погода в Сусумане (Магаданская область, Россия) (219 км)

Пояснения к столбцам:

Ветер - указаны скорость ветра в м/с - средняя за 10 мин, порывы в срок и между сроками (в фигурных скобках) и направление, откуда дует ветер: С - северный, СВ - северо-восточный, В - восточный, ЮВ - юго-восточный, Ю - южный, ЮЗ - юго-западный, З - западный, СЗ - северо-западный.
Видимость - горизонтальная дальность видимости в метрах или километрах. При видимости от 1 до 10 км при отсутствии осадков обычно наблюдается дымка, при ухудшении видимости до 1 км и менее - туман. В сухую погоду видимость может ухудшаться дымом, пылью или мглою.
Явления - указаны атмосферные явления, наблюдавшиеся в срок или в последний час перед сроком; фигурными скобками обозначены явления, наблюдавшиеся между сроками (за 1-3 часа до срока); квадратными скобками обозначены град или гололедные отложения с указанием их диаметра в мм.
Облачность - указаны через наклонную черту общая и нижняя облачность в баллах и высота нижней границы облаков в метрах; квадратными скобками обозначены формы облаков: Ci - перистые, Cs - перисто-слоистые, Cc - перисто-кучевые, Ac - высококучевые, As - высокослоистые, Sc - слоисто-кучевые, Ns - слоисто-дождевые, Cu - кучевые, Cb - кучево-дождевые. Подробнее классификацию облаков см. в Атласе облаков (PDF).
T - Температура воздуха - температура, измеренная на высоте 2 м над землей.
Td - Температура точки росы - температура, при понижении до которой содержащийся в воздухе водяной пар достигнет насыщения.
f - Относительная влажность воздуха - влажноcть воздуха, измеренная на высоте 2 м над землей.
Te - Эффективная температура - температура, которую ощущает одетый по сезону человек в тени. Характеристика душности погоды. При расчете учитывается влияние влажности воздуха и скорости ветра на теплоощущения человека.
Tes - Эффективная температура на солнце - температура, которую ощущает человек, с поправкой на солнечный нагрев. Характеристика знойности погоды. Зависит от высоты солнца над горизонтом, облачности и скорости ветра. Ночью, в пасмурную погоду, а также при ветре 12 м/с и более поправка равна нулю.
P - Атмосферное давление - приведенное к уровню моря атмосферное давление.
Po - Атмосферное давление - измеренное на уровне метеостанции атмосферное давление.
Tmin - Минимальная температура - минимум температуры воздуха на высоте 2 м над землей.
Tmax - Максимальная температура - максимум температуры воздуха на высоте 2 м над землей.
R - Количество осадков - Количество выпавших осадков за период времени, мм. При наведении курсора мыши на число - период времени, за который выпало указанное количество осадков.
R24 - Количество осадков - Количество выпавших осадков за 24 часа, мм.
S - Снежный покров - Высота снежного покрова, см. При наведении курсора мыши на число - состояние снежного покрова и степень покрытия местности в баллах.